Regional Weather Roundup
Issued by NWS

Home | Current Version | Previous Version | Graphics & Text | Print | Product List | Glossary On
Versions: 1 2 3 4 5 6 7 8 9 10 11 12 13 14 15 16 17 18 19 20 21 22 23 24 25 26 27 28 29 30 31 32 33 34 35 36 37 38 39 40 41 42 43 44 45 46 47 48 49 50
000
ASUS43 KBIS 210310
RWRND

NORTH DAKOTA REGIONAL WEATHER ROUNDUP
NATIONAL WEATHER SERVICE BISMARCK ND
1000 PM CDT MON OCT 20 2014

NOTE: "FAIR" INDICATES FEW OR NO CLOUDS BELOW 12,000 FEET WITH NO
SIGNIFICANT WEATHER AND/OR OBSTRUCTIONS TO VISIBILITY.


NDZ001>003-009>011-017-210400-
NORTHWEST NORTH DAKOTA

CITY           SKY/WX    TMP DP  RH WIND       PRES   REMARKS
WILLISTON      CLEAR     59  42  53 SW3       29.82R
MINOT          CLEAR     50  34  54 SE8       29.89S
MINOT AFB      CLEAR     48  37  65 S9        29.88F
$$

NDZ018>021-031>035-040>046-210400-
SOUTHWEST NORTH DAKOTA

CITY           SKY/WX    TMP DP  RH WIND       PRES   REMARKS
BISMARCK       CLEAR     49  34  56 E8        29.95R
DICKINSON      CLEAR     54  41  61 SE12      29.87S
GARRISON         N/A     51  38  60 SE7       29.90F
HETTINGER ARPT CLEAR     54  39  57 E8        29.90F
$$

NDZ004>008-012>016-024-026-027-054-210400-
NORTHEAST NORTH DAKOTA

CITY           SKY/WX    TMP DP  RH WIND       PRES   REMARKS
GRAND FORKS    CLEAR     45  38  76 SE7       30.03S
GRND FRKS AFB  CLEAR     44  40  86 SE6       30.04R
DEVILS LAKE    CLEAR     50  39  66 SE12      29.97S
$$

NDZ022-023-025-028>030-036>039-047>053-210400-
SOUTHEAST NORTH DAKOTA

CITY           SKY/WX    TMP DP  RH WIND       PRES   REMARKS
FARGO          CLEAR     45  35  68 E6        30.03S
JAMESTOWN      CLEAR     51  40  65 SE10      30.00R
$$



USA.gov is the U.S. government's official web portal to all federal, state and local government web resources and services.